Location: Peterborough
(44.3091°N, 78.3197°W)
Time: 05:39:04
(UTC-04:00)

Vanguard 2 - All Passes

Search period start: 22 March 2023 00:00
Search period end: 01 April 2023 00:00
Orbit: 553 x 2927 km, 32.9° (Epoch: 21 March)

Date Brightness Start Highest point End Pass type
(mag) Time Alt. Az. Time Alt. Az. Time Alt. Az.
22 Mar - 05:52:20 10° SSW 06:04:23 24° SSE 06:14:16 10° ESE visible
22 Mar - 08:00:19 10° SW 08:14:32 40° SSE 08:24:18 10° ESE daylight
22 Mar - 10:11:45 10° WSW 10:24:12 44° S 10:32:00 10° ESE daylight
22 Mar - 12:24:16 10° W 12:32:28 28° SSW 12:38:00 10° SSE daylight
23 Mar - 04:06:55 10° SSE 04:10:40 11° SE 04:14:18 10° SE visible
23 Mar - 06:06:57 10° SSW 06:20:31 30° SSE 06:31:21 10° E visible
23 Mar - 08:16:09 10° SW 08:30:49 44° S 08:40:41 10° ESE daylight
23 Mar - 10:28:06 10° WSW 10:40:24 44° S 10:48:07 10° ESE daylight
23 Mar - 12:41:01 10° W 12:48:21 23° SSW 12:53:33 10° SSE daylight
24 Mar - 04:17:37 10° S 04:26:38 16° SE 04:35:00 10° ESE visible
24 Mar - 06:22:01 10° SSW 06:36:42 35° SSE 06:48:07 10° E visible
24 Mar - 08:32:09 10° WSW 08:47:04 48° S 08:56:59 10° ESE daylight
24 Mar - 10:44:29 10° W 10:56:31 41° SSW 11:04:09 10° SE daylight
24 Mar - 12:58:02 10° WSW 13:04:08 18° SW 13:08:44 10° S daylight
25 Mar - 04:30:56 10° S 04:42:35 22° SE 04:53:09 10° ESE visible
25 Mar - 06:37:25 10° SW 06:52:53 40° SSE 07:04:41 10° E visible
25 Mar - 08:48:18 10° WSW 09:03:19 49° S 09:13:13 10° ESE daylight
25 Mar - 11:00:58 10° W 11:12:34 38° SSW 11:20:03 10° SE daylight
25 Mar - 13:15:37 10° WSW 13:19:49 14° SW 13:23:18 10° SSW daylight
26 Mar - 04:45:11 10° SSW 04:58:33 27° SSE 05:10:31 10° E visible
26 Mar - 06:53:05 10° SW 07:09:04 45° SSE 07:21:07 10° E daylight
26 Mar - 09:04:32 10° WSW 09:19:31 50° S 09:29:22 10° ESE daylight
26 Mar - 11:17:32 10° W 11:28:31 33° SSW 11:35:47 10° SSE daylight
27 Mar - 02:58:38 10° SSE 03:04:52 13° SE 03:11:06 10° ESE visible
27 Mar - 04:59:58 10° SSW 05:14:33 33° SSE 05:27:27 10° E visible
27 Mar - 07:08:56 10° WSW 07:25:18 49° S 07:37:27 10° E daylight
27 Mar - 09:20:52 10° WSW 09:35:42 49° S 09:45:27 10° ESE daylight
27 Mar - 11:34:13 10° W 11:44:21 28° SSW 11:51:18 10° SSE daylight
28 Mar - 03:10:44 10° S 03:20:37 18° SE 03:30:30 10° ESE visible
28 Mar - 05:15:09 10° SW 05:30:36 39° SSE 05:44:07 10° E visible
28 Mar - 07:24:57 10° WSW 07:41:32 52° S 07:53:42 10° ESE daylight
28 Mar - 09:37:15 10° W 09:51:48 46° SSW 10:01:25 10° SE daylight
28 Mar - 11:51:07 10° W 12:00:04 23° SW 12:06:31 10° S daylight
29 Mar - 03:24:26 10° S 03:36:23 24° SE 03:48:22 10° E visible
29 Mar - 05:30:37 10° SW 05:46:41 44° SSE 06:00:37 10° E visible
29 Mar - 07:41:05 10° WSW 07:57:44 53° S 08:09:54 10° ESE daylight
29 Mar - 09:53:41 10° W 10:07:49 42° SSW 10:17:17 10° SE daylight
29 Mar - 12:08:24 10° W 12:15:40 18° SW 12:21:17 10° S daylight
30 Mar - 03:38:52 10° SSW 03:52:11 29° SE 04:05:35 10° E visible
30 Mar - 05:46:18 10° SW 06:02:48 48° SSE 06:17:00 10° E visible
30 Mar - 07:57:18 10° WSW 08:13:56 53° S 08:26:02 10° ESE daylight
30 Mar - 10:10:13 10° W 10:23:43 37° SSW 10:32:58 10° SE daylight
30 Mar - 12:26:34 10° WSW 12:31:11 13° SW 12:35:06 10° SSW daylight
31 Mar - 01:52:28 10° SSE 01:58:50 13° SE 02:05:31 10° ESE visible
31 Mar - 03:53:47 10° SSW 04:08:02 35° SSE 04:22:26 10° E visible
31 Mar - 06:02:09 10° WSW 06:18:57 52° S 06:33:18 10° E visible
31 Mar - 08:13:35 10° W 08:30:04 52° S 08:42:04 10° ESE daylight
31 Mar - 10:26:51 10° W 10:39:31 32° SSW 10:48:27 10° SSE daylight
